Location: Unspecified
(58.9933°N, 5.6375°E)
Time: 03:33:00
(UTC+02:00)

CZ-3 Stage 3 - Visible Passes

Search period start: 30 August 2015 00:00
Search period end: 09 September 2015 00:00
Orbit: 439 x 34786 km, 31.0° (Epoch: 25 August)

Date Brightness Start Highest point End Pass type
(mag) Time Alt. Az. Time Alt. Az. Time Alt. Az.
30 Aug 6.7 03:36:41 20° SW 04:10:12 48° SSE 11:56:39 10° S visible
31 Aug 6.9 00:09:33 18° SE 00:20:53 23° ESE 07:52:26 10° SE visible
02 Sep 6.7 03:31:45 22° SW 04:04:27 48° SSE 11:47:39 10° SSW visible
03 Sep 6.9 00:04:39 19° SE 00:14:45 23° ESE 07:44:50 10° SE visible
05 Sep 6.8 03:26:53 23° SW 03:58:46 48° SSE 11:38:26 10° SSW visible
05 Sep 6.9 23:59:47 21° SE 00:08:40 24° ESE 07:37:06 10° SE visible
08 Sep 6.8 03:22:04 25° SW 03:53:08 48° SSE 11:28:56 10° SSW visible
